Welcome to the New NWS' Forecast!
Most changes are behind the scenes, but click here for differences you might notice.

Regional Weather Roundup (RWR)

Issued by Gray - Portland, ME (GYX)

                            
000
ASUS41 KGYX 181705
RWRGYX
WEATHER ROUNDUP FOR MAINE AND NEW HAMPSHIRE
NATIONAL WEATHER SERVICE GRAY ME
100 PM EDT THU OCT 18 2018

MEZ002-005-006-010-012-015-018-020-021-024-026-027-029-181800-
MAINE
  
CITY           SKY/WX    TMP DP  RH WIND       PRES   REMARKS
PORTLAND       FAIR      43  21  41 NW22G28   30.12F                  
SANFORD        FAIR      42  16  34 NW17G26   30.14F                  
BAR HARBOR     PTSUNNY   42  17  36 NW16G29   29.97S                  
WISCASSET      FAIR      41  18  39 NW9G22    30.10R                  
ROCKLAND       FAIR      42  17  36 NW17G35   30.03R                  
FRYEBURG       CLOUDY    38  17  42 NW12G24   30.15S                  
LEWISTONAUBURN FAIR      38  18  44 NW21G32   30.11S                  
AUGUSTA        FAIR      40  18  41 W17G32    30.07S                  
WATERVILLE     FAIR      40  18  41 W18G28    30.03R                  
BANGOR         FAIR      40  17  39 NW18G30   30.00R                  
GREENVILLE       N/A     33  16  49 NW22G36   29.95R                  
MILLINOCKET    CLOUDY    38  16  40 NW17G39   29.95F                  
HOULTON        CLOUDY    36  18  48 NW17G30   29.86R                  
PRESQUE ISLE   CLOUDY    37  19  48 NW21G39   29.86R                  
FRENCHVILLE    FLURRIES  37  20  50 NW28G39   29.81S                  
CARIBOU        CLOUDY    36  17  46 NW24G41   29.82S                  
$$

NHZ002-005-008-009-011-012-014-181800-
NEW HAMPSHIRE
  
CITY           SKY/WX    TMP DP  RH WIND       PRES   REMARKS
PORTSMOUTH     MOSUNNY   45  16  31 W15G30    30.15F                  
ROCHESTER      FAIR      41  18  39 NW16G24   30.15S                  
NASHUA         FAIR      43  15  32 NW18G26   30.21F                  
MANCHESTER     FAIR      44  14  29 N20G25    30.18F                  
CONCORD        FAIR      42  17  36 NW18G31   30.18F                  
LACONIA        PTSUNNY   39  16  39 NW18G26   30.17F                  
PLYMOUTH       CLOUDY    37  18  45 W9G28     30.18S                  
BERLIN         CLOUDY    33  20  58 NW9G22    30.12F                  
WHITEFIELD     CLOUDY    35  21  56 NW17G23   30.16F                  
JAFFREY        FAIR      38  15  39 W10G29    30.20S                  
LEBANON        FAIR      40  16  37 NW14G24   30.21F                  
MT WASHINGTON  SNOW       9   9 100 NW69G79     N/A  VSB 1/16WCI -22  
$$

VTZ005-007-008-181800-
VERMONT
  
CITY           SKY/WX    TMP DP  RH WIND       PRES   REMARKS
ST JOHNSBURY     N/A     35  21  56 MISG      30.19F                  
MONTPELIER     CLOUDY    34  21  59 NW15G26   30.23F                  
BURLINGTON     PTSUNNY   40  19  43 W14G20    30.27S                  
$$

MAZ007-012-024-CTZ003-RIZ002-NYZ038-NYZ072-181800-
SOUTHERN NEW ENGLAND AND NY
  
CITY           SKY/WX    TMP DP  RH WIND       PRES   REMARKS
BOSTON         FAIR      47  16  29 NW15G25   30.20F                  
WORCESTER      FAIR      40  17  39 W21G30    30.20S                  
NANTUCKET      FAIR      46  20  35 NW17G29   30.20F                  
PROVIDENCE     FAIR      46  18  32 NW13G23   30.23F                  
HARTFORD       FAIR      46  17  31 NW14G26   30.27F                  
ALBANY         FAIR      43  19  38 NW17G25   30.33F                  
NEW YORK CITY  FAIR      50  23  34 W20       30.33F                  
$$

ANZ081-ANZ082-ANZ150-NHZ014-MEZ023>029-181800-
COASTAL MARINE OBSERVATIONS
  
STATION/POSITION TIME  TEMP    WIND        PRES    WAVE
                       AIR SEA DIR/SP/G            HT/PER
                 (UTC) (F)     (DEG/KT/KT) (MB)    (FT/S)
MOUNT DESERT ROC 1700   41     290/ 33/ 40 1015.1R
MATINICUS ROCK   1600   40     290/ 33/ 39 1016.0S
ISLE OF SHOALS   1600   40     300/ 19       N/A
JEFFREYS LEDGE   1606      55                N/A     6/ 5
$$

.............KEY..............
   WCI - WIND CHILL
   TC  - TEMPERATURE IN CELSIUS
   VSB - VISIBILITY IN MILES
   HX  - HEAT INDEX
   FAIR- INDICATES FEW OR NO CLOUDS BELOW 12,000 FT, WITH NO 
         SIGNIFICANT WEATHER AND/OR OBSTRUCTIONS TO VISIBILITY.